[Date Prev][Date Next][Thread Prev][Thread Next] - [Date Index][Thread Index][Author Index]
2 Line ISS Keps 2-10
- Subject: [sarex] 2 Line ISS Keps 2-10
- From: "Dave Larsen Ph.D." <doc@xxxxxxxxxxx>
- Date: Mon, 10 Feb 2003 02:01:28 -0800
ISS
1 25544U 98067A 03041.19470288 .00032520 00000-0 38985-3 0 6712
2 25544 51.6367 298.0250 0005446 131.0610 6.6343 15.60607296241198
----
Via the sarex mailing list at AMSAT.ORG courtesy of AMSAT-NA.
To unsubscribe, send "unsubscribe sarex" to Majordomo@amsat.org
AMSAT Home